Theta_e
289 289 289 292 291 290 290 290 291 291 291 293 293 289 290 294 290 288 294 299 297 297 298 299 297 297 297 298 297 297 297 297 296 296 295 295 296 296 295 295 295 295 295 296 297 298 299 300 301 302 303 303 304 305 305 306 307 309 313 315 316 317 318 318 318 320 321 322 324 324 324 324 325 325 325 326 327 328 328 328 328 327 326 324 322 322 323
288 288 290 291 291 290 291 290 291 293 293 291 291 290 291 293 293 296 298 299 296 296 296 296 296 297 296 295 296 296 295 295 295 295 294 294 294 295 295 294 295 295 295 296 297 298 298 299 300 301 302 302 303 303 304 305 306 307 311 312 313 313 314 316 318 319 321 322 323 323 322 323 324 325 325 325 326 327 328 328 327 326 326 326 322 320 320
288 288 290 291 290 291 288 289 291 292 293 293 294 294 294 296 296 298 299 295 289 292 294 293 294 295 295 294 293 293 294 294 293 293 293 293 293 294 294 294 295 296 296 296 297 297 298 299 300 301 302 302 303 303 304 304 305 306 309 310 311 311 311 313 316 318 319 320 322 321 321 322 323 324 324 324 325 325 326 325 324 324 324 322 321 320 320
287 288 289 289 291 291 288 287 288 289 291 291 291 290 290 293 293 295 295 292 291 290 293 293 294 293 292 291 291 292 292 293 292 292 292 292 292 293 293 294 294 295 295 296 296 297 298 299 300 300 301 302 302 302 303 303 304 306 306 307 309 309 310 312 314 316 317 319 320 320 321 320 320 322 323 323 324 324 324 323 323 324 323 322 320 318 317
285 288 289 288 287 290 288 286 286 288 291 292 292 293 293 292 297 293 291 294 295 291 292 290 290 291 290 290 291 291 291 292 292 291 291 292 292 293 293 293 294 294 295 295 296 297 298 299 299 300 301 302 302 302 302 303 304 304 304 304 305 307 309 310 311 314 316 317 318 318 318 319 320 321 321 321 321 319 317 319 321 320 318 320 318 316 315
285 287 289 288 287 282 283 288 290 290 289 291 290 289 289 290 293 292 293 292 292 293 293 291 289 289 289 290 291 293 292 291 291 292 292 292 293 294 294 294 294 295 296 296 297 297 298 299 300 302 302 301 302 303 302 303 303 304 304 303 303 304 306 308 309 312 315 316 316 317 317 317 317 318 317 316 316 316 316 317 318 317 316 315 315 315 317
285 286 286 285 279 282 287 291 293 294 294 294 291 290 290 291 292 292 291 290 291 292 292 291 290 290 291 292 291 291 293 293 292 291 292 292 293 293 294 294 294 295 296 297 297 297 298 299 300 301 301 302 302 301 302 302 302 303 304 303 303 303 303 305 307 309 312 315 315 315 315 314 314 314 314 314 313 313 314 314 314 315 315 313 313 315 316
288 286 286 279 281 286 289 292 293 294 295 294 293 289 290 291 292 292 289 289 289 289 289 290 291 290 290 291 292 292 292 293 292 292 291 292 293 293 294 293 294 295 296 296 297 298 299 300 300 301 301 302 302 301 302 301 301 302 302 302 302 301 300 302 304 307 309 313 314 314 313 312 311 310 310 311 311 311 310 310 310 311 312 314 315 315 315
285 286 285 282 285 286 288 288 290 292 289 291 291 288 289 291 292 292 289 289 289 289 289 290 290 290 290 288 288 292 293 293 293 293 292 293 293 294 295 295 295 297 298 298 297 298 299 299 299 300 301 302 301 301 300 301 301 301 301 300 301 301 301 301 303 305 307 310 313 313 313 311 309 308 308 308 309 310 309 309 307 307 309 313 314 315 315
286 285 282 283 282 281 285 290 293 295 295 295 295 292 288 291 293 293 291 289 289 289 289 289 290 292 291 285 285 289 292 293 293 294 294 295 295 295 295 296 297 298 298 299 298 299 300 300 300 301 302 302 302 301 301 301 301 301 301 300 300 300 300 300 302 304 306 308 310 312 312 311 310 308 307 307 308 309 308 307 307 307 308 307 308 310 312
285 284 282 281 280 282 288 290 292 293 293 294 293 291 288 292 293 293 293 290 290 289 289 289 291 290 288 285 285 289 292 293 294 293 294 294 295 296 296 296 296 297 298 299 299 299 299 299 300 301 302 302 301 300 300 301 301 300 300 300 300 300 300 300 301 303 305 306 308 310 310 310 310 308 307 307 307 307 306 305 305 306 306 305 305 307 308
283 284 282 281 282 283 287 290 290 292 294 292 291 283 285 290 293 293 293 290 289 290 290 291 290 290 288 283 286 291 292 293 294 295 294 294 295 295 296 296 298 298 299 299 298 297 297 298 300 301 302 302 301 300 300 300 300 299 300 300 301 302 302 302 302 303 303 304 305 307 310 310 310 309 308 307 306 305 304 304 304 305 304 304 303 304 306
281 282 281 283 284 287 289 291 291 292 293 293 284 281 287 291 292 292 292 291 291 291 290 291 286 285 289 290 291 292 293 293 293 294 296 295 295 295 295 295 296 297 297 297 297 297 298 299 300 301 302 301 300 300 300 299 299 299 300 302 302 303 303 302 301 302 303 303 303 305 308 311 311 310 309 307 307 306 305 305 305 304 303 303 303 302 302
283 283 283 282 283 286 290 290 291 294 291 284 285 290 292 293 292 293 293 292 292 291 289 288 287 288 290 291 292 292 292 292 293 294 294 295 296 297 297 296 296 296 296 297 297 297 298 299 299 300 301 300 300 300 300 299 299 300 300 301 302 303 303 302 302 303 302 302 303 303 306 310 309 307 308 308 307 306 306 304 303 303 303 303 302 301 300
280 279 280 278 278 284 289 292 292 293 288 288 290 291 293 295 294 293 292 291 290 290 288 289 289 289 290 290 290 290 291 292 292 293 294 295 295 295 295 295 296 296 295 296 296 297 297 298 298 299 300 299 299 300 299 300 300 300 299 300 301 302 302 302 302 302 303 302 301 302 302 304 306 305 306 305 306 306 305 304 303 302 302 302 302 301 300
282 278 279 280 283 285 289 291 288 291 291 293 294 293 290 294 294 292 290 290 290 290 289 288 289 290 289 290 291 291 292 293 293 294 295 295 295 295 295 295 295 296 296 296 297 297 298 297 297 298 299 298 298 299 299 301 301 300 300 299 299 300 301 301 302 301 301 301 301 301 301 301 300 300 301 302 302 302 304 304 303 302 301 301 301 300 299
281 282 283 284 287 288 291 291 289 290 293 295 295 294 293 292 292 294 291 290 291 291 290 290 290 289 290 290 291 291 292 293 293 293 293 293 293 293 293 294 295 295 295 296 296 297 297 297 297 297 298 299 299 299 300 301 301 301 301 300 299 299 300 301 301 301 301 301 301 300 299 300 298 298 298 299 299 300 300 301 301 299 299 299 299 298 298
286 287 288 289 288 289 290 291 293 292 292 294 295 293 292 292 292 293 291 291 291 291 291 289 290 290 291 291 292 292 292 292 293 294 294 293 294 294 294 294 295 295 296 296 296 295 295 296 297 298 298 298 298 298 300 301 301 301 301 300 300 299 300 300 300 300 300 300 301 300 299 299 298 297 297 297 297 298 298 298 298 297 297 298 298 297 297
285 280 287 287 287 289 290 290 292 293 293 293 294 293 293 292 292 292 292 291 291 291 291 290 290 290 292 291 292 292 293 292 293 292 292 293 293 293 293 293 295 296 296 295 295 295 294 295 296 297 297 298 298 299 299 300 301 300 299 299 299 300 300 300 300 299 299 299 299 299 300 298 298 298 297 297 296 297 297 297 296 296 296 296 297 297 296
283 282 285 287 289 290 290 291 290 289 290 291 292 293 293 292 292 292 292 292 291 292 290 291 290 290 291 290 290 291 292 292 293 293 292 292 292 293 293 294 295 295 294 294 294 294 295 296 297 297 297 297 297 298 299 300 300 300 299 298 299 299 300 300 300 300 298 291 295 297 296 296 296 297 297 296 294 293 295 297 296 296 296 295 295 296 296
284 286 287 288 288 288 289 290 291 291 291 290 291 291 291 292 291 291 292 293 292 292 291 292 291 291 291 292 291 291 291 292 293 292 293 292 292 292 292 293 294 293 293 293 294 294 295 296 297 297 297 297 297 298 298 299 300 299 299 298 299 299 299 300 299 300 300 299 299 297 296 294 292 292 295 296 295 293 293 294 295 297 297 296 296 297 297
281 282 284 287 283 282 286 288 290 290 292 291 290 291 290 291 290 291 290 291 293 293 293 293 292 291 291 292 292 291 292 292 292 293 292 292 292 291 292 293 294 294 295 295 295 295 295 296 297 297 297 297 297 297 298 298 300 299 299 298 298 297 298 298 299 300 300 300 300 298 298 296 294 292 288 289 292 294 292 289 288 289 290 292 294 298 296
283 287 289 290 289 288 288 289 290 291 292 291 290 290 290 291 291 291 291 290 291 291 292 293 291 291 291 291 291 290 291 292 293 293 293 292 292 292 293 294 294 294 295 295 295 295 295 296 296 297 297 297 297 297 297 298 298 299 299 298 297 297 296 296 295 298 299 300 300 300 299 298 297 295 294 292 289 289 289 289 289 288 288 288 288 288 295
290 291 290 291 289 286 288 290 291 291 292 291 290 291 291 291 291 292 291 291 290 290 291 291 292 291 291 292 291 289 289 290 291 292 293 293 293 293 294 294 294 294 294 294 294 294 296 296 296 297 297 296 297 297 297 297 298 298 298 298 297 297 297 297 296 297 298 298 299 299 299 299 298 297 295 293 293 290 289 289 289 289 288 288 288 288 288
288 291 291 291 290 290 291 291 292 292 293 292 291 291 291 291 291 292 291 291 291 291 289 289 290 291 292 292 292 291 289 288 290 291 292 292 292 292 293 293 293 293 293 294 294 295 295 296 296 296 296 296 296 297 297 297 298 298 297 298 298 298 298 298 297 296 296 296 296 297 298 298 299 298 298 297 294 294 293 289 289 289 288 288 289 288 289
292 291 292 292 291 291 291 291 291 292 292 292 291 291 292 292 292 291 290 290 289 289 289 288 288 289 291 290 289 289 289 289 289 291 292 292 292 292 292 293 293 294 294 294 294 295 295 296 296 296 295 295 296 296 297 297 297 297 297 297 297 297 297 297 297 297 297 297 296 296 296 296 297 297 297 298 298 297 295 294 294 292 290 289 288 289 288
292 292 291 289 287 288 290 288 287 291 292 292 291 291 291 290 290 289 289 289 289 290 289 289 289 289 290 290 289 289 289 289 291 292 292 291 292 292 293 294 294 294 294 294 294 293 293 295 296 296 295 295 296 297 297 297 297 296 296 297 296 290 287 292 298 297 297 297 296 296 296 297 296 295 296 295 296 295 295 294 293 292 291 291 290 288 289
292 293 293 287 285 286 286 289 291 291 291 290 290 289 289 290 290 289 288 288 289 289 290 290 291 291 290 291 291 290 291 291 291 291 292 292 292 293 294 294 295 295 294 294 294 294 295 296 296 296 295 296 296 297 297 297 297 296 296 297 297 297 297 296 298 298 298 298 298 297 296 295 295 295 294 294 294 294 294 295 295 295 294 293 292 290 289
290 290 290 290 289 289 289 290 290 290 289 290 290 290 290 290 290 290 289 290 290 291 290 290 291 292 291 290 292 291 291 291 291 291 291 292 292 293 294 295 295 295 295 294 295 295 295 295 295 295 295 296 296 297 298 297 297 297 296 296 296 297 297 297 297 297 297 297 297 296 292 294 295 296 296 294 294 295 294 294 293 294 295 295 296 296 293
290 290 290 289 290 290 289 288 288 289 289 289 289 289 290 290 288 288 289 289 291 290 290 291 291 290 291 291 291 292 292 291 291 291 292 292 293 294 294 295 295 295 295 294 294 295 295 295 295 294 295 296 296 297 298 298 297 297 297 296 295 295 296 297 298 298 298 297 294 291 294 296 296 296 296 296 295 294 293 292 292 292 294 294 292 294 293
289 290 290 290 290 290 290 289 289 289 289 289 289 288 289 290 288 288 288 290 291 291 291 291 291 291 290 290 289 290 290 291 291 292 292 292 293 293 294 296 294 292 292 293 294 295 295 295 295 294 295 296 296 297 298 298 298 298 298 297 295 287 285 287 290 297 297 296 295 296 296 296 295 294 293 293 294 293 294 294 293 292 292 294 294 293 293
289 289 290 290 290 290 290 290 289 289 288 289 288 288 289 289 289 289 290 291 291 291 291 291 291 290 289 289 290 290 291 291 291 292 292 292 292 292 293 294 294 291 294 294 295 295 295 295 295 295 296 296 296 296 297 297 298 298 297 293 297 296 291 288 294 293 294 295 295 296 294 296 296 295 294 294 294 293 293 293 292 292 293 293 292 292 292
288 287 288 288 289 289 289 290 289 288 289 289 290 290 290 292 292 292 292 291 290 290 291 291 290 289 289 290 291 291 291 291 291 291 291 291 291 291 292 292 293 294 294 294 294 295 296 295 295 296 296 296 296 296 296 297 298 298 297 297 297 296 291 290 290 295 294 295 295 295 296 296 296 295 294 293 294 293 294 293 291 292 292 293 293 293 290
290 289 290 291 291 289 289 289 290 289 290 290 290 291 291 292 292 292 291 290 291 290 291 290 290 289 290 291 290 290 291 291 290 289 290 290 289 289 290 290 292 292 293 293 295 295 295 295 296 296 296 296 296 295 295 296 297 297 298 297 297 296 296 295 295 296 295 294 294 292 294 295 295 294 293 293 295 294 293 292 292 292 292 293 293 293 288
294 293 293 293 293 293 293 292 292 292 291 290 290 291 291 291 292 292 291 292 292 291 290 290 289 290 290 290 290 290 290 289 288 287 286 286 286 284 285 289 292 294 294 295 295 295 295 295 296 296 296 297 296 295 295 295 296 297 297 297 296 296 296 294 295 295 294 294 295 296 295 295 294 291 292 294 294 294 293 292 293 292 293 292 294 294 291
293 292 292 293 293 293 293 293 293 293 293 293 293 292 291 292 292 291 291 291 290 290 290 290 289 289 289 289 288 287 286 286 285 284 284 283 282 283 285 286 287 289 293 293 294 294 294 295 285 285 296 296 296 296 294 295 296 296 296 296 295 294 295 294 294 294 294 296 295 294 294 290 291 293 293 294 295 294 294 294 292 293 292 292 293 293 292
294 293 293 293 293 294 294 293 293 293 293 293 293 292 291 291 292 292 291 290 290 290 290 290 290 290 290 290 289 289 289 287 286 285 284 282 283 284 285 285 286 288 289 291 291 293 295 295 285 285 294 296 296 296 292 284 296 296 296 297 296 295 295 295 296 295 295 295 294 294 291 292 294 294 292 294 295 293 293 294 294 294 293 292 292 291 292
293 294 293 293 293 293 294 293 293 293 292 291 291 292 293 292 291 291 291 291 290 290 291 292 292 291 290 288 289 289 288 288 287 286 283 283 285 286 286 287 288 288 290 291 290 291 295 291 285 292 297 296 296 296 290 282 287 296 298 297 296 295 295 295 295 294 294 295 292 295 294 293 294 294 294 294 294 294 293 294 293 293 293 293 293 292 292
291 291 292 293 293 293 292 291 291 292 294 293 292 291 290 292 291 292 291 291 290 290 291 290 289 290 290 290 289 289 289 288 286 285 285 285 285 287 287 288 289 290 291 290 289 294 293 293 297 297 297 297 297 297 291 285 287 297 297 298 298 297 295 296 296 295 294 295 294 294 294 294 294 293 293 294 294 292 291 291 292 292 293 294 295 294 292
292 292 292 292 292 292 292 291 291 292 292 294 293 292 290 290 291 292 291 290 289 289 291 290 291 290 290 291 291 291 291 290 286 284 285 285 285 287 290 291 291 290 288 282 289 292 290 284 292 297 297 297 298 297 294 289 291 296 297 297 296 296 296 295 295 294 294 294 293 290 294 293 293 293 293 294 294 294 294 294 294 294 294 294 294 294 294
292 292 291 292 292 292 292 292 291 291 292 292 293 293 292 292 292 292 291 292 290 290 291 292 293 292 292 292 293 293 292 291 289 289 288 288 288 288 288 288 291 291 289 288 292 291 287 290 295 296 297 297 298 293 296 290 296 297 297 296 296 295 295 295 295 295 295 295 294 295 295 294 295 294 293 294 294 294 294 295 294 294 295 294 294 294 294
291 292 291 291 291 291 291 292 291 290 291 292 292 292 293 293 293 294 293 293 291 290 291 291 288 293 293 292 292 292 292 291 290 289 289 291 291 289 289 290 293 292 284 284 285 288 293 294 294 292 297 297 296 287 288 294 297 297 297 297 296 295 295 295 295 295 295 295 295 295 295 295 295 294 294 295 295 295 295 294 295 294 295 295 294 294 294
291 291 291 291 291 291 291 291 292 293 291 291 291 292 293 293 294 293 292 291 291 290 290 291 288 287 289 291 292 293 293 292 291 291 290 291 291 291 292 293 293 292 281 288 292 294 294 296 296 297 291 294 294 283 284 297 297 297 297 296 295 296 296 295 295 295 296 296 296 296 296 295 295 295 294 294 294 295 294 295 294 295 295 295 295 295 294
291 292 292 291 291 291 291 291 292 292 292 291 291 292 292 292 293 293 292 291 291 290 291 291 291 292 291 292 292 292 293 292 293 292 292 293 294 293 292 292 293 289 282 290 291 293 294 295 297 293 283 283 283 282 293 297 297 297 297 296 296 296 295 296 296 296 296 295 295 296 296 294 295 295 295 293 294 295 295 294 295 295 295 296 296 296 295
291 292 292 292 292 291 291 291 292 292 294 292 291 291 292 292 292 293 293 293 292 291 291 292 292 292 292 292 293 295 295 296 295 294 292 291 291 294 295 288 290 290 287 286 293 293 294 295 292 285 286 284 283 284 296 297 297 297 297 297 297 296 296 295 295 296 295 296 295 295 295 295 296 295 296 295 291 293 292 294 295 295 295 295 295 295 295
292 292 292 287 291 292 292 293 294 294 292 291 291 290 291 292 292 292 292 294 293 292 293 294 294 294 294 294 294 294 293 292 293 294 295 296 295 295 293 288 292 288 286 284 292 294 294 287 285 283 283 283 283 291 296 295 295 296 296 297 296 295 296 296 295 295 295 294 295 295 296 296 296 296 296 296 295 293 294 292 292 295 296 296 295 295 295
292 291 292 293 294 293 292 292 292 293 293 292 292 292 291 292 292 292 292 293 293 294 293 293 294 295 295 295 295 293 293 293 294 293 293 294 292 290 288 286 286 284 285 290 293 294 294 292 285 283 283 283 283 295 296 296 296 296 296 296 296 296 295 296 296 296 295 295 294 293 291 293 295 297 296 293 294 293 294 292 293 295 296 294 294 293 292
291 291 292 293 292 291 291 292 292 292 292 293 294 295 294 293 293 293 293 292 292 292 293 293 293 294 293 293 293 295 296 295 293 295 296 294 295 295 294 294 292 286 286 285 286 286 285 285 284 283 283 283 289 295 295 295 295 295 296 296 296 296 297 296 296 295 295 295 295 296 296 296 297 297 296 295 293 294 294 293 293 293 294 294 294 294 295
293 293 293 292 292 291 292 292 292 292 294 294 294 294 293 293 293 293 292 293 292 293 293 294 295 295 294 293 293 294 293 294 295 295 298 296 296 296 296 290 285 283 287 292 294 294 287 283 283 283 282 283 293 295 295 295 294 295 295 295 295 296 296 296 297 297 296 296 295 294 295 295 296 296 296 296 295 294 293 293 293 292 293 292 292 293 292
292 292 291 291 291 292 292 292 292 294 295 294 294 294 293 293 292 293 293 293 294 293 294 295 296 296 296 295 294 294 294 293 293 294 294 295 295 296 294 294 293 288 287 293 295 294 287 283 283 283 286 291 294 294 295 295 296 294 295 294 293 295 294 292 290 290 293 294 295 295 295 294 295 294 293 294 295 295 294 292 293 291 286 288 291 292 291
291 291 292 291 292 293 294 294 295 295 295 294 295 293 293 293 295 294 295 294 294 294 294 296 296 296 296 296 295 295 294 294 294 291 294 295 295 292 291 293 293 290 291 290 292 293 292 292 292 289 288 291 293 295 294 295 295 294 291 294 294 293 294 292 292 295 295 294 294 294 294 295 295 295 295 293 294 293 295 294 292 291 293 293 292 292 293
293 294 293 293 293 293 294 294 295 295 295 295 294 292 293 295 295 294 294 288 295 295 295 295 295 297 297 296 296 296 296 295 295 295 292 293 295 296 293 287 292 291 291 292 294 294 293 292 289 286 287 292 293 294 289 288 292 294 294 292 291 294 294 295 293 294 294 294 293 294 293 294 294 295 293 295 295 294 293 293 293 293 292 292 292 291 292
Wind_Speed
9 6 5 5 9 8 8 7 5 5 5 1 5 2 2 3 3 4 10 14 10 12 12 11 9 9 10 9 9 9 8 8 7 7 7 7 10 10 10 9 8 8 8 8 9 9 9 9 9 9 9 9 10 10 10 10 10 11 10 10 10 10 9 9 9 9 9 6 5 4 4 4 4 4 5 6 7 8 9 10 10 9 9 9 10 7 4
11 9 7 4 9 8 10 9 9 7 7 6 5 6 3 3 0 1 16 14 8 5 7 10 9 8 9 9 8 8 8 8 7 7 7 8 9 10 9 8 7 6 7 8 8 9 9 10 10 9 9 10 10 10 10 10 10 10 9 10 10 10 10 10 10 9 9 8 6 4 2 3 4 4 5 6 6 8 8 7 8 7 8 5 6 7 7
8 9 5 6 6 6 10 9 9 8 8 10 9 9 6 7 8 9 15 13 6 3 6 10 9 9 9 10 10 9 7 7 7 8 9 9 9 9 8 7 6 6 7 8 8 9 9 10 10 9 8 9 9 9 10 10 10 9 9 9 10 10 10 11 10 10 9 8 6 4 1 2 3 4 5 5 6 8 7 6 6 7 8 7 5 6 6
3 5 8 7 9 11 12 9 9 9 6 6 4 4 2 1 9 13 12 9 7 5 8 10 9 10 10 9 9 8 7 7 7 8 9 9 8 8 7 6 6 7 7 8 8 8 9 9 9 9 9 8 9 9 9 9 9 9 9 9 10 10 10 11 11 11 10 9 7 5 2 1 1 1 2 1 2 2 4 5 3 5 7 7 6 5 4
2 1 1 2 2 5 3 3 4 5 4 4 5 5 7 6 6 13 8 4 5 11 9 11 8 10 9 9 7 7 8 7 7 8 8 8 7 8 7 6 6 6 6 6 6 7 7 7 8 9 8 8 9 9 9 9 8 8 8 8 9 10 11 12 11 11 11 9 8 8 6 3 3 3 3 5 5 5 4 3 2 5 4 6 6 5 5
4 2 2 2 3 5 2 3 3 3 3 2 3 3 4 6 5 3 4 6 11 12 9 11 11 10 8 8 7 7 6 6 7 7 8 7 7 7 6 5 5 5 4 4 5 6 6 6 6 7 7 8 8 8 7 7 8 8 9 9 9 10 10 11 12 11 11 10 9 7 6 4 4 4 5 6 5 4 4 4 3 5 6 6 6 5 3
5 3 3 3 4 1 0 4 1 1 1 3 8 6 6 5 7 10 11 10 10 9 8 10 12 12 11 10 10 9 8 7 7 6 8 7 7 6 6 7 6 6 5 5 5 7 7 7 7 7 8 8 7 8 8 9 9 9 10 10 11 10 11 11 11 11 11 11 9 8 7 5 5 7 6 6 6 5 5 4 5 5 6 6 5 5 4
3 1 2 4 2 2 3 0 1 2 4 6 7 6 5 4 4 9 10 9 9 11 11 11 11 13 14 13 11 9 9 8 6 6 7 7 6 6 5 5 5 5 6 6 6 5 6 7 7 8 8 8 7 8 9 10 9 10 10 11 11 10 10 11 11 12 11 11 10 9 8 6 6 6 6 6 6 6 6 5 5 6 7 6 6 6 5
4 2 2 3 0 2 3 1 4 5 3 5 2 0 2 3 5 7 11 10 10 10 10 12 12 12 10 11 10 9 9 8 7 7 8 6 5 6 6 4 4 4 4 4 4 3 5 8 9 9 8 7 7 8 10 10 10 11 11 12 12 11 10 10 11 12 12 11 11 9 8 8 8 6 6 5 4 5 8 6 7 8 8 7 7 6 7
0 6 4 2 1 3 4 4 4 3 3 3 2 1 2 4 5 8 12 13 11 11 11 11 11 8 7 7 6 5 6 7 7 7 7 6 6 6 6 4 3 3 3 3 3 5 7 10 9 8 7 7 7 9 10 10 11 12 13 13 11 10 10 10 10 12 11 11 11 10 9 8 8 7 5 5 6 6 8 7 8 8 6 8 9 8 8
2 3 6 5 5 3 2 7 5 3 1 1 3 1 2 6 8 10 12 13 12 12 12 11 7 4 3 4 4 2 4 5 5 6 6 7 7 7 6 5 5 5 4 4 5 8 10 11 9 9 8 8 9 10 9 10 11 12 13 12 12 11 10 9 8 10 11 11 11 11 10 9 8 8 7 5 4 8 9 9 8 8 7 8 8 9 9
1 4 2 3 2 1 1 6 2 1 1 2 2 2 1 5 8 10 12 13 13 12 10 6 3 1 3 8 6 4 4 5 6 6 7 8 8 8 7 7 5 4 4 7 10 10 10 8 8 9 8 9 11 10 9 10 12 12 12 11 10 10 10 10 8 8 10 11 11 10 10 9 9 9 7 7 7 10 8 9 9 9 8 8 10 9 9
2 3 1 1 1 1 2 5 2 1 4 2 2 3 2 8 8 9 10 12 12 10 7 2 4 4 6 10 9 7 6 7 8 8 7 7 7 8 8 6 5 5 7 8 7 8 6 7 8 8 7 9 10 10 10 12 13 11 10 9 10 10 10 11 11 12 12 12 12 11 10 10 9 9 8 8 7 6 9 9 10 9 10 9 10 10 10
3 1 1 1 1 1 1 1 1 1 2 4 2 3 3 11 10 10 11 13 9 7 7 9 10 9 11 12 10 10 9 8 7 6 7 7 8 7 6 6 6 5 6 8 9 9 9 9 8 8 8 10 10 10 11 12 11 9 9 9 9 10 11 11 12 14 13 12 12 11 13 11 11 10 10 10 10 9 8 9 12 10 10 7 9 10 10
3 1 3 1 2 2 0 6 3 1 2 2 2 6 8 9 11 13 11 10 9 11 12 11 12 12 11 11 10 9 9 6 6 6 7 8 7 6 7 7 6 5 6 8 8 8 8 8 7 8 9 10 9 9 11 11 9 9 9 9 10 11 12 13 12 12 14 15 12 10 12 11 12 11 9 10 9 10 9 8 9 12 11 10 11 10 10
2 2 3 2 2 4 1 3 5 3 2 2 6 8 10 10 11 11 9 7 9 12 15 13 12 12 13 11 10 9 8 6 5 6 7 7 6 6 6 5 5 5 7 7 7 9 8 8 8 8 8 9 9 10 10 8 8 8 9 9 9 10 11 12 12 12 11 13 13 11 11 10 12 12 11 9 10 10 9 8 8 9 9 9 9 10 11
0 0 2 2 3 1 3 2 2 2 2 4 6 7 10 11 9 9 9 11 11 13 15 14 12 11 10 11 9 9 9 6 6 6 6 5 5 6 6 6 7 7 7 7 8 10 10 10 8 8 7 8 10 11 9 8 8 8 9 10 10 10 11 12 11 11 12 12 12 12 11 12 12 12 12 11 10 10 9 8 8 8 10 8 10 8 9
5 6 5 4 4 5 5 5 4 4 5 5 8 11 10 8 9 6 11 13 14 13 12 14 12 12 12 11 9 8 7 6 5 5 6 6 6 6 7 7 7 6 7 9 10 11 11 11 9 8 8 9 10 8 7 7 7 8 8 9 10 10 10 11 11 10 11 13 14 12 12 11 13 11 11 11 11 10 10 9 9 10 8 8 9 10 10
4 1 2 3 4 6 6 6 6 6 5 6 7 10 10 10 9 10 12 14 13 12 12 15 14 13 11 11 9 9 8 7 6 6 6 6 6 7 7 6 6 8 8 9 10 11 11 9 8 8 9 8 8 7 7 7 7 8 9 9 9 9 10 9 10 11 12 10 10 11 11 11 11 10 11 11 11 11 10 10 10 9 9 8 7 8 9
1 4 4 5 6 6 6 5 6 7 8 8 8 10 10 10 10 12 13 13 13 11 12 13 15 13 9 10 9 8 7 6 5 5 5 6 6 7 7 7 8 9 9 10 10 10 9 8 8 8 9 9 8 7 7 7 6 7 8 8 8 8 10 9 8 8 10 11 11 10 10 9 10 10 10 11 11 10 9 8 9 9 8 9 9 9 8
6 7 7 7 8 7 6 6 6 7 9 12 13 13 13 12 12 12 11 11 12 12 13 11 12 14 12 10 9 8 6 5 5 5 5 5 6 6 7 7 8 8 8 9 9 10 8 7 7 8 9 8 8 8 7 6 6 7 7 8 8 9 8 8 8 7 7 8 9 9 10 11 11 9 7 8 10 9 9 6 6 8 7 7 7 6 6
5 5 7 11 6 6 5 7 8 10 12 14 14 13 15 15 15 14 14 12 11 11 9 9 10 12 10 9 8 7 4 3 3 5 5 5 6 6 4 5 7 9 9 10 10 10 8 7 7 8 8 8 8 8 7 6 6 6 6 6 7 7 7 7 6 6 7 7 8 8 8 8 9 10 13 13 8 9 7 11 15 14 10 7 4 4 6
6 8 12 4 7 10 7 9 9 10 11 14 15 13 13 13 11 12 14 14 12 10 8 6 8 8 7 7 6 6 4 3 4 5 5 6 5 4 5 8 9 10 10 10 10 10 7 7 7 8 8 8 9 8 8 6 6 5 6 6 6 6 6 6 7 6 6 7 7 7 8 8 7 7 6 10 14 14 13 13 14 15 14 14 14 11 5
9 11 9 8 9 9 10 11 10 9 8 13 15 13 11 12 11 11 12 12 12 11 9 7 6 7 7 6 6 7 5 4 5 6 6 6 6 6 7 8 9 10 10 10 9 7 7 7 8 8 9 9 8 8 7 6 6 6 6 5 5 5 5 5 6 7 6 6 6 7 7 7 7 7 7 7 8 13 15 16 16 17 16 16 15 15 14
10 10 11 12 14 13 11 11 10 9 10 12 13 14 13 12 10 10 10 10 9 10 9 7 5 4 7 6 7 6 5 4 4 7 7 7 7 7 7 8 8 8 7 6 6 6 7 7 8 8 9 9 8 8 7 6 6 7 7 6 6 6 5 5 5 7 6 6 6 6 7 7 7 6 6 6 6 6 6 10 16 18 17 16 15 14 14
16 15 15 14 13 12 11 12 12 10 10 10 11 10 10 10 11 10 9 9 8 7 7 6 6 4 5 7 6 6 7 6 5 6 7 6 6 7 8 7 6 5 6 7 7 7 7 8 8 9 9 9 8 7 6 6 6 7 6 6 6 5 4 5 5 5 6 6 6 6 6 5 5 6 6 6 5 5 5 6 6 9 13 16 14 13 14
15 16 18 18 14 11 7 7 9 9 10 10 10 11 10 9 9 8 7 7 6 6 7 6 6 6 6 7 7 6 8 6 7 7 6 7 7 6 5 4 6 7 7 7 7 7 7 8 9 9 9 8 7 6 5 6 6 7 7 6 6 6 8 5 5 5 5 5 5 5 5 5 5 5 6 6 6 6 5 5 5 6 5 7 10 12 10
10 7 3 10 13 11 12 11 10 10 10 10 8 7 7 6 8 8 9 9 8 7 6 5 7 8 7 5 8 7 7 8 7 6 7 6 4 3 4 5 6 7 7 7 6 6 7 8 9 9 9 8 7 7 6 6 6 6 6 6 6 5 5 5 5 5 5 5 5 5 4 5 5 5 5 5 6 5 5 5 5 5 5 6 4 5 10
11 12 12 12 13 13 11 11 10 9 8 7 7 5 7 9 8 8 8 8 8 8 7 6 5 6 7 4 6 7 7 7 8 7 6 4 4 4 3 5 6 7 7 7 7 7 8 8 8 9 9 8 7 7 6 7 7 6 6 5 5 5 5 4 4 5 5 5 5 5 5 5 5 6 6 6 5 5 6 6 6 5 5 4 4 4 5
12 13 13 12 11 13 14 12 11 9 5 5 6 6 7 9 8 6 6 7 7 7 5 6 7 6 5 7 5 6 7 7 7 5 5 4 4 3 3 4 8 8 8 8 7 6 7 8 8 8 7 7 7 6 6 6 6 6 7 7 6 5 4 3 4 5 5 5 5 5 5 5 6 6 7 7 7 7 6 5 5 4 4 4 5 5 5
13 14 14 14 14 12 12 12 8 7 6 5 6 7 7 8 8 7 6 5 6 6 4 6 7 7 7 7 5 5 6 6 6 5 5 4 4 3 3 4 6 7 6 5 5 5 6 7 7 6 5 6 6 6 5 5 4 6 6 5 6 7 7 7 7 5 4 5 5 6 6 6 7 7 7 7 8 8 8 7 5 4 5 5 5 5 5
16 14 12 10 10 12 10 8 8 7 6 6 8 9 9 10 9 8 6 6 5 6 7 7 7 7 6 5 6 6 6 6 6 6 5 5 5 4 3 4 4 4 4 4 4 4 5 7 7 5 5 5 6 6 5 4 4 6 5 5 6 5 6 6 5 6 5 5 5 6 6 6 6 7 7 7 7 6 7 5 5 5 4 6 6 5 5
17 14 11 10 10 10 10 8 8 7 6 7 6 5 4 5 6 5 4 5 5 5 5 5 5 6 5 5 6 6 6 6 6 6 5 5 4 4 3 3 3 3 3 3 3 3 5 6 5 4 5 5 5 5 5 4 3 4 4 4 4 5 5 6 4 4 6 5 5 5 4 5 5 6 6 6 6 7 7 5 4 4 6 5 5 4 5
12 12 12 11 10 11 12 9 6 6 4 4 5 5 5 5 5 4 4 4 5 6 5 6 6 6 5 5 6 6 6 7 6 4 4 4 4 3 3 2 2 3 3 2 3 3 3 3 3 4 4 5 6 5 4 4 3 3 3 3 5 5 5 5 5 6 5 5 4 4 4 4 5 5 5 5 6 6 6 4 6 5 4 5 4 4 5
8 10 10 10 8 8 8 8 7 7 7 7 5 4 4 4 4 4 3 4 5 4 5 5 5 4 5 5 5 4 5 5 4 3 2 2 1 1 1 1 2 3 5 5 4 4 2 2 3 3 4 5 6 5 4 4 3 3 3 4 5 5 4 4 5 5 4 4 3 4 4 4 4 3 3 4 4 4 5 5 4 5 4 4 4 3 3
10 9 7 7 8 8 8 7 6 7 6 6 5 5 5 4 5 5 5 4 4 6 5 5 5 5 5 5 4 4 3 3 3 3 2 2 1 0 1 3 3 3 5 6 4 3 1 2 3 3 4 5 5 6 6 4 3 3 3 3 4 4 4 4 4 4 3 3 4 4 4 4 3 3 3 3 3 3 4 4 3 3 3 3 3 4 2
10 9 7 7 6 7 7 6 6 5 5 5 5 5 4 3 4 3 4 6 6 6 6 6 5 5 5 3 3 3 3 2 2 2 2 1 0 1 3 3 3 3 3 4 2 1 2 3 2 3 3 5 6 6 6 6 3 2 2 3 3 4 4 4 3 4 4 3 3 3 2 1 3 3 2 3 3 3 3 4 3 3 3 3 3 2 3
6 8 8 7 6 6 5 4 4 5 6 4 2 2 3 5 4 4 5 5 6 6 5 5 4 3 4 3 3 3 4 3 3 3 2 2 1 1 1 2 2 2 3 3 1 0 2 2 1 2 4 5 5 5 5 5 3 3 4 4 4 3 3 3 3 3 3 3 2 3 3 3 3 5 4 3 3 3 3 3 3 3 3 2 1 1 2
6 3 3 4 4 5 5 4 3 3 6 7 4 4 3 3 5 5 4 4 4 5 6 4 4 4 4 5 4 4 3 3 3 2 2 2 1 1 1 1 1 1 2 2 1 1 2 1 2 3 4 4 4 4 4 4 4 4 4 4 5 5 4 4 3 3 3 2 2 2 2 3 3 2 2 4 3 3 3 3 3 3 3 3 3 1 0
6 6 6 6 5 5 5 5 5 5 2 3 7 6 6 6 5 5 4 5 4 4 5 6 6 5 5 4 5 4 4 4 4 3 3 2 2 1 1 2 3 3 2 2 1 0 2 0 1 3 3 3 2 3 3 3 2 4 4 4 4 4 5 4 4 3 3 2 2 1 2 2 2 2 2 2 2 3 4 3 3 4 4 3 3 2 2
6 6 6 6 6 5 6 6 5 4 4 4 3 5 7 7 6 5 5 6 6 5 5 5 5 4 4 5 4 4 3 3 3 4 3 2 0 0 1 2 2 2 3 2 3 3 4 2 1 3 3 2 2 2 2 1 2 4 4 4 4 4 4 4 4 3 3 3 3 3 3 2 1 1 2 2 2 2 3 3 3 3 4 4 3 2 2
6 7 7 6 5 6 5 3 5 5 4 3 4 6 7 7 8 7 5 5 5 5 5 3 1 1 2 2 2 3 3 2 3 2 3 2 0 0 1 2 2 2 4 5 4 3 3 3 2 2 2 2 2 3 1 2 2 3 3 3 3 3 3 3 3 3 2 2 2 2 2 2 3 3 3 3 2 2 2 2 3 3 3 3 3 2 2
8 9 8 7 6 6 6 6 6 6 6 5 5 6 6 6 4 3 4 5 5 5 4 3 3 3 3 3 3 3 2 2 2 2 2 3 3 3 1 2 2 2 5 4 4 4 4 3 3 3 3 2 2 6 4 1 1 2 2 2 2 2 2 2 2 1 1 2 2 2 2 2 3 3 4 4 3 2 2 2 2 3 3 3 3 2 2
9 7 8 8 7 6 6 5 5 5 6 5 5 5 6 6 4 5 6 6 5 5 5 5 4 3 3 3 3 3 3 3 3 2 2 2 3 5 6 4 3 4 6 3 3 3 3 3 3 4 6 5 6 5 3 2 2 1 1 1 1 1 1 1 1 1 1 1 2 2 2 2 2 2 3 2 2 2 3 3 2 3 3 3 2 2 2
9 8 8 8 8 7 6 6 7 7 5 6 6 5 5 5 5 4 5 6 6 6 5 4 5 5 4 4 5 5 4 3 3 4 3 3 4 1 2 5 5 4 5 5 3 3 3 3 4 7 5 6 6 5 3 2 2 2 1 1 2 1 1 0 1 1 1 1 1 2 2 2 2 2 2 2 3 3 2 3 3 3 3 4 4 3 3
8 7 8 9 8 7 7 7 5 5 7 7 5 4 4 4 4 4 4 4 5 6 6 6 5 5 6 5 3 1 1 1 2 4 4 3 3 1 2 2 3 4 6 7 4 4 4 5 6 6 6 6 6 4 3 3 3 3 3 3 2 2 2 2 1 1 1 2 2 2 2 2 2 2 2 3 2 1 2 3 4 4 3 4 4 4 4
8 7 8 8 6 5 5 4 5 6 7 6 6 5 5 5 4 4 4 3 2 3 3 3 4 3 3 4 4 4 3 3 3 4 5 4 4 4 4 4 3 5 6 5 5 5 5 6 7 7 7 7 7 4 3 3 3 4 4 4 3 3 3 3 3 3 2 2 2 2 3 3 3 2 2 2 2 1 1 2 2 4 4 4 4 4 3
9 8 7 7 7 6 6 6 7 6 7 7 6 5 5 5 5 3 3 2 2 2 3 3 3 3 3 4 4 4 3 3 3 4 4 4 4 3 3 4 4 6 7 5 6 6 5 7 8 8 8 7 6 4 4 3 3 3 4 4 4 4 4 4 4 4 3 3 2 3 3 3 2 2 2 2 2 1 1 2 2 3 3 3 3 3 4
9 8 7 6 7 8 7 6 6 6 6 6 6 4 4 5 4 3 3 3 3 2 3 3 3 3 3 4 4 3 3 3 5 2 1 1 2 3 3 3 4 6 5 4 4 4 8 9 8 8 8 7 4 4 3 3 3 3 3 3 4 4 4 4 4 4 3 3 3 3 3 3 3 3 3 3 2 1 2 2 2 2 2 2 2 4 3
6 7 7 6 6 6 6 6 5 6 5 4 4 4 5 5 4 4 4 4 4 3 2 3 3 3 2 2 3 3 3 4 4 4 2 2 1 2 1 2 2 6 6 4 4 3 5 8 7 7 7 5 4 3 3 3 3 3 3 3 4 3 4 4 3 4 4 4 4 3 3 3 3 3 3 4 3 2 2 2 2 2 3 3 4 3 2
7 7 7 7 7 7 8 8 7 6 5 5 4 4 5 5 5 4 4 4 3 4 4 4 3 3 2 3 2 3 3 4 4 4 3 3 3 4 4 2 2 3 4 4 4 4 2 4 3 5 6 5 4 4 4 4 4 4 4 3 4 4 4 4 5 5 5 4 4 4 4 4 4 4 3 3 3 3 3 3 2 2 2 2 2 2 2
9 8 7 6 6 6 6 5 3 4 4 4 5 5 5 5 4 3 2 4 4 4 4 3 4 4 3 2 3 3 3 3 3 3 4 3 3 2 2 2 2 3 3 4 3 3 3 2 4 6 5 3 3 3 4 4 4 3 4 4 4 4 4 4 4 4 3 5 5 5 5 4 4 4 3 3 4 5 3 3 2 2 2 2 2 2 2
Wind_Direction
59 48 56 73 80 67 88 76 62 40 359 33 127 144 83 173 184 189 171 174 168 165 162 151 141 143 142 141 126 115 115 106 103 100 86 77 72 64 58 49 39 24 18 9 3 358 353 351 354 353 351 347 345 346 347 347 345 347 345 351 355 356 359 355 344 338 334 321 305 292 273 252 229 209 200 197 184 178 178 172 165 153 144 145 147 148 139
53 39 48 76 110 103 75 59 59 55 66 68 81 94 69 358 347 171 152 167 120 113 128 121 119 117 112 107 103 101 95 96 95 90 76 71 71 69 63 55 42 27 22 12 5 356 352 351 352 355 355 351 349 348 349 347 347 346 351 1 3 359 0 356 348 346 345 338 324 311 278 267 247 217 193 187 178 179 174 156 149 137 130 109 123 136 155
47 39 64 82 101 120 91 63 58 61 85 85 77 95 82 78 80 120 141 139 135 84 100 105 108 104 104 92 86 81 81 84 82 80 72 63 60 60 58 50 34 28 24 14 6 360 352 349 351 352 352 349 347 347 349 350 349 349 358 4 5 3 359 354 352 351 352 349 342 335 11 259 257 235 218 196 185 181 153 134 146 137 124 132 120 127 149
68 39 68 89 101 96 92 67 41 32 43 74 48 64 355 135 138 136 125 144 172 151 125 109 106 99 86 86 85 81 75 74 76 75 66 59 50 49 45 33 29 29 22 11 4 353 346 346 351 354 350 352 356 355 352 353 347 349 2 7 7 4 358 354 355 358 357 357 8 16 38 296 108 186 229 118 57 48 76 108 139 133 124 131 121 110 105
104 112 261 11 264 121 102 38 358 7 62 81 101 65 39 23 142 140 161 184 106 137 134 114 101 98 94 82 80 92 84 75 75 72 70 63 56 55 45 28 24 23 16 4 353 343 345 350 352 355 355 358 0 355 355 356 354 360 5 9 10 7 3 1 358 358 4 6 20 33 27 9 30 36 42 58 74 72 65 67 104 87 75 103 102 103 122
148 196 299 245 160 175 155 30 298 312 356 16 101 60 16 22 14 93 43 110 125 136 141 131 128 114 105 101 78 76 94 101 83 78 78 71 69 63 49 34 25 15 10 8 357 341 332 339 349 348 4 1 354 355 356 3 7 8 10 12 13 11 5 3 360 358 7 13 22 37 44 19 27 40 54 63 64 61 68 60 44 80 91 78 81 85 86
140 193 270 149 194 135 116 247 302 316 217 116 104 94 68 71 95 102 97 105 120 127 118 118 115 109 102 89 85 74 76 82 82 84 78 70 67 57 44 33 21 23 360 1 2 2 357 342 347 6 13 3 1 10 13 17 18 19 23 19 16 11 10 5 1 0 1 14 16 25 43 33 35 42 42 48 54 48 56 55 55 48 82 81 71 73 73
100 164 153 183 190 332 299 262 194 7 89 106 120 87 76 73 115 122 117 112 106 108 109 110 115 111 103 86 70 70 70 71 78 81 77 73 70 59 48 32 3 6 3 9 10 360 339 355 8 13 5 350 4 14 20 20 18 25 25 25 19 9 7 3 3 2 360 10 26 29 30 35 39 50 54 52 57 55 58 43 56 65 49 65 75 75 71
160 125 92 62 23 244 165 177 184 191 163 176 200 200 143 126 147 143 131 127 125 120 120 123 124 122 106 80 63 55 68 74 79 82 81 78 70 71 63 41 12 359 4 16 357 345 14 23 19 8 350 349 2 18 26 15 18 26 28 26 18 12 10 4 9 10 10 12 25 32 43 52 49 41 56 53 60 69 70 54 48 52 55 55 57 63 70
264 148 124 124 131 240 198 160 98 88 84 77 101 24 142 158 160 158 145 141 141 132 132 138 147 165 110 70 62 31 53 81 85 77 80 76 72 70 65 51 41 32 27 30 25 31 34 35 23 3 354 359 18 32 24 18 25 29 27 23 15 10 6 4 8 17 14 17 24 32 38 50 58 53 44 59 66 63 72 59 50 51 57 68 66 66 66
139 159 163 185 185 221 44 151 143 107 117 156 229 175 258 159 170 161 152 142 145 145 147 151 165 190 150 116 120 69 44 55 54 68 60 62 66 63 56 43 38 34 21 25 43 46 39 32 12 5 3 21 35 34 21 21 29 32 25 17 12 6 358 356 4 18 23 23 22 31 44 45 51 55 47 36 71 78 76 70 57 55 51 63 67 65 64
168 145 149 174 222 125 100 148 139 145 165 120 243 220 223 143 166 157 153 147 146 145 144 143 134 213 163 150 148 133 83 62 57 55 57 56 60 62 54 48 36 14 11 44 42 40 37 21 6 11 11 36 38 29 25 30 33 29 20 13 8 8 6 4 9 19 24 22 22 23 37 53 54 59 55 51 55 86 82 83 70 59 53 55 63 59 58
130 148 85 17 181 116 140 148 175 193 206 234 194 174 59 153 153 153 145 139 141 138 131 126 102 40 69 114 126 116 101 78 58 41 48 55 52 53 48 36 18 39 41 45 46 40 34 21 18 10 20 38 36 29 30 34 30 22 14 13 16 20 21 18 17 26 34 33 27 26 27 53 55 51 49 50 46 52 93 87 89 74 63 64 64 58 52
140 152 127 89 357 30 105 135 257 313 190 174 195 45 141 146 145 145 142 132 124 106 99 108 108 111 103 108 105 98 84 85 89 73 51 51 54 48 46 34 30 37 43 42 38 38 32 29 21 12 23 38 35 31 32 31 22 16 18 23 25 31 31 26 31 37 36 40 38 32 35 45 51 50 45 49 56 50 61 84 86 77 77 64 68 63 55
69 56 90 80 213 125 103 126 101 302 230 59 93 120 126 138 137 134 127 119 111 111 103 105 110 112 109 109 110 108 101 84 74 73 72 64 54 51 46 45 30 42 58 49 41 36 31 29 23 17 26 32 27 31 33 23 21 22 18 22 34 39 38 32 26 36 41 43 47 43 36 29 43 44 35 36 35 40 48 50 82 93 77 72 71 67 60
129 152 171 188 27 111 61 223 179 140 25 113 147 138 132 132 134 129 113 103 121 124 121 121 114 111 111 109 109 106 103 101 88 82 82 80 74 67 58 49 28 37 61 57 53 41 36 30 25 23 28 36 27 28 27 12 19 29 33 31 29 40 43 39 33 32 36 45 50 51 47 42 39 39 36 35 38 35 30 46 48 67 76 72 67 63 63
151 78 86 115 207 154 126 90 68 46 111 134 144 139 136 137 130 127 114 121 121 121 120 115 115 113 108 111 108 104 101 87 70 62 59 56 57 50 44 31 22 38 47 50 54 49 38 31 29 26 25 37 37 31 11 10 21 33 41 41 38 40 46 47 44 43 45 42 44 51 51 53 52 42 38 35 43 31 31 34 32 48 62 63 73 68 59
110 71 62 106 109 130 103 67 76 100 102 99 123 133 126 123 125 118 128 131 127 124 120 117 112 112 116 109 101 94 88 90 84 77 66 59 53 52 42 31 23 36 52 52 50 48 39 28 30 31 33 35 38 25 14 14 18 27 39 44 47 48 49 49 46 47 54 52 46 49 59 57 59 54 54 51 52 45 42 41 41 41 50 57 68 70 63
155 60 91 85 103 112 111 103 93 85 85 105 115 125 121 122 111 112 124 128 124 120 116 116 115 113 112 106 99 92 81 66 54 56 61 53 46 42 44 19 21 38 40 46 43 42 39 23 26 30 35 37 35 28 23 16 24 35 35 36 43 47 50 52 50 48 52 53 56 47 47 61 62 58 56 52 53 52 51 48 48 48 47 46 58 73 73
50 123 121 106 97 99 111 121 120 109 100 93 93 113 111 107 105 114 118 115 114 112 113 117 114 110 99 97 94 86 77 68 56 50 49 53 54 49 45 33 38 45 44 45 40 40 37 23 28 33 37 35 31 29 27 22 28 42 44 38 43 47 51 53 53 56 63 56 58 60 46 45 57 62 63 60 55 46 41 44 52 51 48 45 44 47 56
102 100 110 115 99 78 90 108 106 113 118 112 108 108 107 105 99 98 99 111 121 119 121 119 117 117 115 111 111 103 94 68 52 54 58 58 58 49 46 39 43 46 45 47 45 44 36 25 29 37 34 32 28 28 24 27 32 48 49 47 50 50 50 55 54 49 59 62 65 65 62 59 54 45 50 67 76 66 43 29 35 54 62 49 45 38 44
164 173 166 151 128 139 124 114 119 119 119 115 111 110 110 115 115 114 111 105 104 110 112 114 115 117 118 119 120 115 101 96 99 89 80 72 68 61 55 56 54 56 52 51 48 43 33 24 31 37 36 30 27 27 27 22 27 52 54 51 48 44 42 42 41 50 55 56 59 66 69 65 62 57 44 46 50 75 61 46 54 50 60 63 39 46 65
178 157 154 136 88 114 126 123 116 117 119 118 115 113 111 111 110 114 116 117 112 104 88 78 93 99 108 121 119 112 116 109 106 106 102 94 84 67 57 62 54 53 51 50 52 44 31 28 34 36 37 30 29 24 25 27 28 41 51 62 58 50 41 41 25 31 48 54 53 61 64 66 65 67 66 48 49 61 73 66 61 57 55 54 49 40 42
98 131 132 124 126 125 128 119 113 112 114 115 112 110 106 110 112 112 111 113 114 107 96 86 89 109 112 111 104 102 91 86 105 109 101 90 86 77 63 61 58 54 51 49 46 37 30 34 36 34 34 28 25 25 22 25 38 49 47 51 55 50 50 48 37 34 43 45 52 63 65 66 67 71 67 66 53 44 52 60 58 56 51 48 45 45 42
130 115 109 111 112 109 107 108 105 100 110 112 111 115 116 114 107 104 105 102 100 108 110 108 98 99 110 109 106 101 96 77 71 94 92 83 77 73 70 64 57 57 56 53 47 41 39 39 40 37 37 23 17 21 22 24 38 57 56 55 56 53 51 53 58 52 49 47 44 47 56 61 65 60 64 65 66 65 56 68 68 59 50 46 48 48 49
115 112 108 104 101 103 105 101 94 97 95 98 99 98 97 96 98 98 92 99 102 103 107 107 101 74 96 103 100 107 90 82 96 104 98 95 85 75 69 69 69 70 68 61 52 44 44 42 44 41 37 22 14 12 19 32 43 55 59 62 56 48 53 54 57 55 53 55 57 57 53 52 51 54 52 54 59 57 51 28 35 52 53 48 42 49 50
109 116 117 107 102 91 69 97 117 107 97 93 95 96 91 85 82 83 79 73 80 93 104 106 103 105 92 93 87 75 102 110 95 86 90 84 79 76 74 72 74 70 65 61 54 42 41 43 45 43 36 19 11 12 24 41 53 55 56 63 77 68 43 42 68 66 65 64 60 57 56 53 49 47 51 46 51 51 48 52 53 41 18 32 40 47 53
110 106 90 133 130 123 115 102 99 101 98 95 89 80 82 88 92 91 96 100 98 96 95 107 120 110 97 96 102 98 95 93 92 90 86 80 79 83 74 73 72 68 65 59 53 41 42 45 45 42 33 17 12 14 23 42 57 58 57 60 63 65 65 56 59 66 65 64 60 61 58 55 55 57 49 47 48 51 49 54 51 52 51 41 35 38 53
77 77 73 78 94 104 103 104 99 88 76 78 88 92 104 101 101 105 102 104 110 109 104 94 76 88 98 95 92 96 94 95 95 89 90 88 84 79 80 81 80 72 66 60 54 47 50 48 46 42 28 11 11 13 23 39 44 46 49 49 57 60 58 55 63 72 69 62 56 54 58 60 69 68 65 63 57 52 48 42 37 35 44 35 29 45 48
98 95 97 100 104 109 110 110 114 113 89 106 104 98 107 112 106 102 112 117 116 103 103 109 97 84 83 82 72 87 91 93 98 99 97 92 85 74 73 95 94 82 73 64 55 50 54 51 48 40 19 1 8 11 26 44 50 53 56 55 54 51 53 47 75 74 76 77 76 64 63 66 67 68 66 62 58 58 57 53 40 37 36 40 35 36 28
102 103 108 112 112 109 112 121 121 120 116 112 109 107 103 109 112 117 122 122 112 106 104 104 105 102 87 90 88 85 93 97 99 97 93 87 75 58 41 68 82 77 72 65 59 56 60 57 50 38 11 2 11 15 24 37 48 56 58 62 75 69 59 53 53 57 75 84 78 78 78 73 69 64 58 55 55 53 52 49 44 42 37 39 41 35 19
109 107 109 109 113 117 116 120 124 127 129 133 130 129 131 127 130 130 134 129 110 111 119 117 115 110 110 112 110 107 105 104 101 98 94 88 80 67 57 67 81 81 81 80 74 65 63 58 49 25 4 13 19 22 23 30 36 58 56 53 53 59 39 29 63 55 60 67 76 79 68 67 65 63 63 56 53 53 53 51 47 42 40 43 41 31 9
120 121 124 127 126 127 127 134 135 135 146 141 121 106 102 108 118 121 111 112 105 95 100 105 107 112 116 116 111 107 105 103 100 99 92 85 75 67 58 54 62 61 68 62 68 58 60 58 43 10 15 21 29 30 28 29 39 57 60 52 62 55 50 43 24 63 59 55 59 54 61 57 60 63 62 55 53 50 49 52 51 51 51 48 49 38 32
136 141 145 149 148 146 144 135 121 117 99 92 113 120 116 119 115 114 113 92 101 113 119 125 129 130 134 122 114 115 121 119 109 94 84 78 64 48 40 42 47 49 55 65 86 80 69 62 33 26 23 27 38 39 31 32 47 55 52 63 64 64 55 56 48 56 59 53 59 56 57 56 55 55 59 56 50 48 42 42 41 41 52 55 56 53 48
115 120 132 136 128 120 121 131 134 129 126 121 115 108 107 115 123 113 109 120 112 117 122 122 122 117 104 102 106 101 106 106 108 110 97 80 58 12 339 82 109 95 82 73 68 69 53 46 36 36 39 39 43 44 42 38 36 61 58 66 66 68 63 60 56 55 55 59 50 59 59 56 62 55 47 42 47 40 43 35 31 32 36 40 47 58 64
124 125 125 128 133 137 135 137 135 132 130 127 129 128 131 125 129 129 125 105 105 117 125 122 121 120 121 124 126 134 127 128 130 127 131 118 52 328 78 83 89 95 96 89 62 55 57 74 30 9 41 46 43 46 36 27 58 53 64 74 88 80 73 67 69 72 55 53 57 49 49 45 37 34 25 28 31 28 26 28 26 20 26 25 23 21 32
138 137 136 133 135 139 138 136 140 138 129 131 134 129 127 133 125 107 103 121 132 134 133 134 135 142 144 131 117 114 127 140 148 150 139 119 108 95 93 87 74 99 114 104 81 38 75 70 17 40 61 58 51 46 35 9 47 63 80 76 86 87 88 85 72 74 74 63 58 63 64 80 55 56 26 12 16 10 1 6 8 356 8 11 2 1 12
129 136 144 145 148 147 138 127 129 125 115 109 92 112 135 138 141 141 136 132 136 137 138 137 133 119 108 113 128 147 146 142 142 137 140 154 181 122 108 125 123 149 120 104 122 135 87 61 313 68 74 66 57 55 42 32 31 50 66 63 73 73 73 77 86 79 81 90 83 79 64 55 54 46 37 27 21 3 1 348 343 335 338 334 348 345 346
117 82 88 114 122 130 125 124 138 144 153 149 131 116 124 131 133 134 128 124 126 137 134 127 128 136 148 154 153 151 154 154 150 144 153 170 200 212 139 142 150 116 91 115 121 123 104 100 81 95 84 77 75 68 63 52 28 61 62 66 62 64 64 69 71 79 70 79 87 69 71 56 46 39 33 29 12 6 6 6 337 332 326 327 306 309 336
147 155 155 150 154 153 148 152 166 161 148 143 147 143 148 145 147 141 131 131 146 163 147 145 150 154 160 162 154 158 158 158 160 163 164 161 179 203 192 173 197 216 166 153 181 143 142 228 175 118 107 101 88 84 66 41 33 73 75 74 72 67 63 61 71 82 87 92 96 108 65 64 51 42 29 12 13 7 357 357 354 360 354 346 322 301 282
162 156 158 171 162 159 162 162 165 161 157 150 152 133 148 149 144 143 158 165 158 168 164 167 162 150 162 167 158 137 142 144 160 165 156 157 157 45 100 115 132 157 176 188 180 158 164 191 140 139 134 139 113 87 103 78 61 81 78 80 77 76 72 61 60 55 56 54 51 42 40 15 29 4 12 358 4 354 351 352 350 355 0 357 359 340 298
160 156 156 163 158 163 158 141 128 141 149 145 149 153 150 152 158 173 167 145 146 163 166 172 46 126 137 124 126 132 137 137 148 157 184 216 225 129 128 117 120 131 143 166 168 172 170 175 183 196 157 151 135 139 166 142 106 92 83 84 82 79 71 74 72 67 54 39 38 38 22 6 357 354 339 326 320 334 338 340 338 345 354 358 353 357 334
153 160 163 162 153 154 154 163 168 155 143 148 162 168 156 157 146 121 131 147 153 158 164 159 147 137 150 158 163 169 156 136 155 163 208 244 228 243 243 96 122 127 162 190 178 183 183 183 183 186 168 166 128 149 198 204 135 127 104 97 79 71 69 63 54 47 35 24 19 5 359 349 335 339 340 328 309 299 306 316 326 340 336 337 341 335 329
166 159 153 152 157 158 150 149 137 131 146 155 162 158 155 159 164 160 158 156 159 166 169 169 174 179 168 166 166 183 184 180 186 176 215 226 224 214 217 219 225 150 163 188 192 202 189 188 198 157 167 175 149 182 208 192 187 181 157 137 102 89 63 71 74 5 351 342 328 334 344 325 307 318 321 324 308 279 277 296 313 313 322 313 313 312 308
166 163 160 153 145 141 149 145 156 171 154 128 140 158 171 171 171 181 166 163 167 170 175 172 177 185 175 179 192 204 202 190 190 168 197 231 250 249 155 197 207 209 189 196 199 209 208 204 180 175 183 180 172 182 222 227 235 241 243 206 184 196 193 259 333 330 324 296 295 301 294 297 307 298 298 308 290 281 273 279 295 308 305 307 306 301 299
163 153 145 137 145 163 170 167 152 120 121 133 133 154 185 187 176 179 191 172 166 179 189 181 183 188 185 190 191 146 115 199 216 219 235 251 259 50 113 184 191 200 175 181 209 201 212 188 181 190 194 188 175 191 222 220 234 235 238 246 248 238 241 243 226 259 269 294 301 291 277 277 276 294 303 316 322 292 277 277 280 278 282 291 301 303 302
152 149 159 160 154 137 124 118 126 133 131 141 160 175 187 193 195 194 188 187 176 169 174 188 204 203 197 183 177 181 201 211 216 205 224 231 232 240 205 192 198 170 175 195 206 204 200 179 194 198 197 193 191 215 209 215 215 227 225 233 233 238 243 246 247 256 259 273 277 267 248 251 267 290 271 258 257 261 277 270 277 286 293 293 291 279 265
155 157 165 154 139 136 132 132 138 151 164 176 181 179 170 179 191 191 168 167 175 164 180 197 213 214 206 207 219 231 239 239 260 247 176 209 216 217 211 211 203 187 199 223 231 243 218 199 189 189 194 186 195 215 207 210 211 215 222 221 224 231 234 240 242 246 251 259 255 285 306 297 279 284 296 298 302 289 283 278 281 285 289 292 296 301 304
161 152 142 134 136 144 148 157 161 164 181 179 177 168 150 156 161 171 180 183 184 205 215 217 220 220 215 214 217 219 216 224 230 259 75 200 197 204 216 216 193 185 200 221 212 216 193 197 194 192 186 191 211 206 207 203 202 208 213 218 225 227 232 235 241 244 252 258 269 276 288 291 292 287 292 287 285 280 270 267 270 271 283 290 292 288 280
132 127 138 150 155 160 159 161 175 187 172 168 181 146 145 151 162 188 182 184 197 201 215 228 229 220 213 205 204 212 200 211 229 245 240 224 232 244 214 210 200 192 205 230 220 226 168 178 191 190 191 206 213 206 206 202 204 203 211 209 220 228 227 235 240 236 244 247 249 255 260 270 283 276 270 274 277 281 281 276 281 268 242 257 263 278 284
154 161 167 169 173 174 172 175 183 179 172 180 162 145 159 182 192 168 175 176 164 188 215 220 229 221 216 208 203 200 194 202 217 219 227 230 227 243 250 244 209 202 202 216 223 222 196 188 196 186 201 216 214 206 205 206 213 207 209 216 210 226 223 211 223 227 225 232 243 246 253 262 259 260 257 259 259 265 264 260 261 266 250 257 259 269 273
170 171 165 163 171 172 187 195 177 174 176 156 149 162 181 189 184 173 157 178 197 201 207 211 245 239 213 216 213 206 185 200 196 198 217 227 225 239 183 199 240 209 210 223 229 222 220 206 194 198 209 212 215 213 212 211 220 222 215 211 222 227 225 233 231 234 235 228 229 240 241 245 249 246 244 243 242 248 250 252 253 256 254 256 254 257 267